When you browse on this site, cookies collect data to enhance your experience and personalize the content and advertising you see.
Visit our Privacy Policy to learn more. By continuing to use the site, you agree to this use of cookies and data.
  • In France
  • List of Countries
  • For 7 days
  • Water Temperature
  • Weather Map
  • Weather Widgets
  • user-avatar
    Login

    Hourly Weather Manika

    Today, 6 December, Friday

    Time Temperature Precipitation Wind Pressure Humidity
    00:00 +19°C° 0.2 mm 2 mps 680 mmHg 91%
    01:00 +19°C° 0.2 mm 2 mps 680 mmHg 91%
    02:00 +19°C° 0 mm 2 mps 680 mmHg 91%
    03:00 +20°C° 0.1 mm 1 mps 680 mmHg 92%
    04:00 +19°C° 0.1 mm 1 mps 680 mmHg 94%
    05:00 +19°C° 0.1 mm 1 mps 679 mmHg 95%
    06:00 +20°C° 0 mm 1 mps 680 mmHg 88%
    07:00 +20°C° 0 mm 2 mps 681 mmHg 81%
    08:00 +21°C° 0 mm 3 mps 681 mmHg 74%
    09:00 +24°C° 0 mm 3 mps 681 mmHg 65%
    10:00 +26°C° 0 mm 3 mps 680 mmHg 57%
    11:00 +28°C° 0 mm 3 mps 680 mmHg 49%
    12:00 +29°C° 0 mm 3 mps 679 mmHg 46%
    13:00 +30°C° 0 mm 4 mps 679 mmHg 43%
    14:00 +32°C° 0 mm 4 mps 678 mmHg 40%
    15:00 +29°C° 0 mm 4 mps 678 mmHg 46%
    16:00 +28°C° 0 mm 4 mps 677 mmHg 51%
    17:00 +27°C° 0 mm 4 mps 677 mmHg 56%
    18:00 +25°C° 0 mm 4 mps 677 mmHg 65%
    19:00 +22°C° 0 mm 3 mps 677 mmHg 74%
    20:00 +20°C° 0 mm 3 mps 677 mmHg 82%
    21:00 +20°C° 0 mm 2 mps 677 mmHg 85%
    22:00 +19°C° 0 mm 2 mps 677 mmHg 88%
    23:00 +19°C° 0 mm 2 mps 677 mmHg 91%

    Tomorrow, 7 December, Saturday

    Time Temperature Precipitation Wind Pressure Humidity
    00:00 +19°C° 0 mm 2 mps 677 mmHg 92%
    01:00 +19°C° 0 mm 1 mps 677 mmHg 93%
    02:00 +19°C° 0 mm 1 mps 677 mmHg 94%
    03:00 +19°C° 0 mm 1 mps 676 mmHg 95%
    04:00 +19°C° 0 mm 1 mps 676 mmHg 95%
    05:00 +19°C° 0 mm 1 mps 676 mmHg 95%
    06:00 +22°C° 0 mm 1 mps 677 mmHg 81%
    07:00 +23°C° 0 mm 0 mps 678 mmHg 67%
    08:00 +27°C° 0 mm 0 mps 678 mmHg 52%
    09:00 +29°C° 0 mm 0 mps 678 mmHg 45%
    10:00 +34°C° 0 mm 1 mps 678 mmHg 38%
    11:00 +37°C° 0 mm 1 mps 678 mmHg 30%
    12:00 +37°C° 0 mm 1 mps 678 mmHg 29%
    13:00 +36°C° 0 mm 1 mps 677 mmHg 28%
    14:00 +37°C° 0 mm 2 mps 676 mmHg 27%
    15:00 +36°C° 0 mm 2 mps 676 mmHg 32%
    16:00 +34°C° 0 mm 3 mps 675 mmHg 37%
    17:00 +31°C° 0 mm 3 mps 674 mmHg 42%
    18:00 +29°C° 0 mm 3 mps 675 mmHg 49%
    19:00 +27°C° 0 mm 3 mps 675 mmHg 56%
    20:00 +26°C° 0 mm 3 mps 675 mmHg 63%
    21:00 +25°C° 0 mm 3 mps 675 mmHg 66%
    22:00 +24°C° 0 mm 2 mps 675 mmHg 70%
    23:00 +24°C° 0 mm 2 mps 676 mmHg 74%

    Day after tomorrow, 8 December, Sunday

    Time Temperature Precipitation Wind Pressure Humidity
    00:00 +23°C° 0 mm 2 mps 675 mmHg 78%
    01:00 +21°C° 0 mm 2 mps 675 mmHg 81%
    02:00 +21°C° 0 mm 2 mps 675 mmHg 84%
    03:00 +20°C° 0 mm 2 mps 675 mmHg 84%
    04:00 +21°C° 0 mm 1 mps 675 mmHg 83%
    05:00 +21°C° 0 mm 1 mps 675 mmHg 83%
    06:00 +24°C° 0 mm 1 mps 676 mmHg 71%
    07:00 +27°C° 0 mm 1 mps 676 mmHg 60%
    08:00 +30°C° 0 mm 1 mps 677 mmHg 48%
    09:00 +32°C° 0 mm 1 mps 677 mmHg 43%
    10:00 +35°C° 0 mm 1 mps 677 mmHg 37%
    11:00 +37°C° 0 mm 1 mps 677 mmHg 31%
    12:00 +35°C° 0.1 mm 1 mps 676 mmHg 36%
    13:00 +34°C° 0.1 mm 2 mps 675 mmHg 41%
    14:00 +31°C° 0.1 mm 3 mps 674 mmHg 46%
    15:00 +30°C° 0.4 mm 2 mps 674 mmHg 51%
    16:00 +29°C° 0.4 mm 2 mps 674 mmHg 56%
    17:00 +28°C° 0.4 mm 2 mps 674 mmHg 61%
    18:00 +27°C° 1.4 mm 2 mps 674 mmHg 68%
    19:00 +26°C° 1.4 mm 2 mps 674 mmHg 75%
    20:00 +24°C° 1.4 mm 2 mps 675 mmHg 82%
    21:00 +24°C° 0.7 mm 2 mps 675 mmHg 84%
    22:00 +23°C° 0.7 mm 2 mps 675 mmHg 86%
    23:00 +23°C° 0.7 mm 2 mps 675 mmHg 88%

    9 December, Monday

    Time Temperature Precipitation Wind Pressure Humidity
    00:00 +23°C° 0.5 mm 2 mps 675 mmHg 90%
    01:00 +21°C° 0.5 mm 2 mps 675 mmHg 92%
    02:00 +22°C° 0.5 mm 1 mps 675 mmHg 94%
    03:00 +22°C° 0.1 mm 1 mps 675 mmHg 94%
    04:00 +22°C° 0.1 mm 1 mps 675 mmHg 94%
    05:00 +21°C° 0.1 mm 1 mps 675 mmHg 94%
    06:00 +23°C° 0 mm 1 mps 675 mmHg 86%
    07:00 +25°C° 0 mm 1 mps 676 mmHg 78%
    08:00 +27°C° 0 mm 1 mps 676 mmHg 70%
    09:00 +29°C° 0.4 mm 1 mps 676 mmHg 61%
    10:00 +31°C° 0.4 mm 2 mps 676 mmHg 52%
    11:00 +34°C° 0.4 mm 2 mps 676 mmHg 42%
    12:00 +34°C° 0.1 mm 2 mps 675 mmHg 42%
    13:00 +34°C° 0.1 mm 3 mps 675 mmHg 41%
    14:00 +34°C° 0.1 mm 3 mps 674 mmHg 40%
    15:00 +33°C° 0 mm 4 mps 674 mmHg 43%
    16:00 +33°C° 0 mm 5 mps 673 mmHg 46%
    17:00 +32°C° 0 mm 5 mps 673 mmHg 49%
    18:00 +29°C° 0.2 mm 4 mps 673 mmHg 58%
    19:00 +27°C° 0.2 mm 3 mps 674 mmHg 68%
    20:00 +25°C° 0.2 mm 2 mps 674 mmHg 77%
    21:00 +24°C° 0.9 mm 2 mps 674 mmHg 82%
    22:00 +23°C° 0.9 mm 1 mps 674 mmHg 86%
    23:00 +23°C° 0.9 mm 1 mps 675 mmHg 91%

    10 December, Tuesday

    Time Temperature Precipitation Wind Pressure Humidity
    00:00 +23°C° 0.3 mm 1 mps 674 mmHg 92%
    01:00 +23°C° 0.3 mm 1 mps 674 mmHg 92%
    02:00 +22°C° 0.3 mm 1 mps 674 mmHg 93%
    03:00 +22°C° 0.7 mm 1 mps 674 mmHg 94%
    04:00 +22°C° 0.7 mm 1 mps 674 mmHg 94%
    05:00 +21°C° 0.7 mm 2 mps 674 mmHg 94%
    06:00 +23°C° 0.8 mm 2 mps 674 mmHg 88%
    07:00 +25°C° 0.8 mm 2 mps 675 mmHg 82%
    08:00 +26°C° 0.8 mm 2 mps 675 mmHg 76%
    09:00 +27°C° 1.4 mm 1 mps 675 mmHg 73%
    10:00 +28°C° 1.4 mm 1 mps 675 mmHg 69%
    11:00 +29°C° 1.4 mm 1 mps 675 mmHg 66%
    12:00 +29°C° 3.1 mm 1 mps 675 mmHg 68%
    13:00 +29°C° 3.1 mm 1 mps 674 mmHg 70%
    14:00 +28°C° 3.1 mm 1 mps 674 mmHg 73%
    15:00 +27°C° 2.8 mm 1 mps 673 mmHg 80%
    16:00 +25°C° 2.8 mm 2 mps 673 mmHg 87%
    17:00 +23°C° 2.8 mm 2 mps 673 mmHg 94%
    18:00 +23°C° 5.5 mm 2 mps 673 mmHg 95%
    19:00 +22°C° 5.5 mm 1 mps 673 mmHg 96%
    20:00 +22°C° 5.5 mm 1 mps 673 mmHg 98%
    21:00 +22°C° 5.8 mm 1 mps 674 mmHg 97%
    22:00 +22°C° 5.8 mm 1 mps 674 mmHg 97%
    23:00 +21°C° 5.8 mm 1 mps 674 mmHg 96%

    11 December, Wednesday

    Time Temperature Precipitation Wind Pressure Humidity
    00:00 +21°C° 2.9 mm 1 mps 674 mmHg 96%
    01:00 +19°C° 2.9 mm 0 mps 673 mmHg 96%
    02:00 +18°C° 2.9 mm 0 mps 673 mmHg 96%
    03:00 +19°C° 1.2 mm 0 mps 673 mmHg 96%
    04:00 +19°C° 1.2 mm 0 mps 673 mmHg 96%
    05:00 +19°C° 1.2 mm 0 mps 674 mmHg 96%
    06:00 +20°C° 0 mm 0 mps 674 mmHg 92%
    07:00 +21°C° 0 mm 0 mps 675 mmHg 88%
    08:00 +22°C° 0 mm 0 mps 675 mmHg 84%
    09:00 +26°C° 0 mm 1 mps 675 mmHg 75%
    10:00 +27°C° 0 mm 2 mps 676 mmHg 65%
    11:00 +29°C° 0 mm 3 mps 676 mmHg 56%
    12:00 +30°C° 0 mm 3 mps 675 mmHg 52%
    13:00 +31°C° 0 mm 3 mps 675 mmHg 49%
    14:00 +31°C° 0 mm 3 mps 674 mmHg 45%
    15:00 +31°C° 0 mm 3 mps 674 mmHg 48%
    16:00 +30°C° 0 mm 2 mps 674 mmHg 52%
    17:00 +29°C° 0 mm 2 mps 674 mmHg 55%
    18:00 +28°C° 0 mm 1 mps 674 mmHg 62%
    19:00 +26°C° 0 mm 1 mps 675 mmHg 68%
    20:00 +24°C° 0 mm 1 mps 675 mmHg 75%
    21:00 +23°C° 0 mm 1 mps 675 mmHg 78%
    22:00 +23°C° 0 mm 1 mps 675 mmHg 80%
    23:00 +22°C° 0 mm 1 mps 675 mmHg 83%
    Show more